When you browse on this site, cookies collect data to enhance your experience and personalize the content and advertising you see.
Visit our Privacy Policy to learn more. By continuing to use the site, you agree to this use of cookies and data.
  • Em Portugal
  • Lista de países
  • Para 7 dias
  • Temperatura da água
  • Mapas de satélite
  • Mapa do tempo
  • Widgets de tempo
  • user-avatar
    Iniciar Sessão

    Previsão horária em Nagoia

    Hoje, 19 Novembro, Segunda-feira

    Tempo Temperatura Precipitação Vento Pressão Humidade
    00:00 +15°C° 0 mm 1 m/s 751 mmHg 51%
    01:00 +15°C° 0.1 mm 1 m/s 751 mmHg 54%
    02:00 +15°C° 0.1 mm 1 m/s 751 mmHg 58%
    03:00 +15°C° 0 mm 1 m/s 751 mmHg 59%
    04:00 +14°C° 0.6 mm 1 m/s 751 mmHg 64%
    05:00 +14°C° 0.6 mm 2 m/s 751 mmHg 69%
    06:00 +14°C° 0.6 mm 2 m/s 751 mmHg 74%
    07:00 +14°C° 0.2 mm 2 m/s 751 mmHg 74%
    08:00 +14°C° 0.2 mm 2 m/s 751 mmHg 74%
    09:00 +14°C° 0 mm 2 m/s 751 mmHg 71%
    10:00 +14°C° 0 mm 3 m/s 751 mmHg 67%
    11:00 +16°C° 0 mm 3 m/s 751 mmHg 63%
    12:00 +16°C° 0 mm 3 m/s 750 mmHg 59%
    13:00 +15°C° 0 mm 4 m/s 750 mmHg 57%
    14:00 +15°C° 0 mm 4 m/s 750 mmHg 56%
    15:00 +15°C° 0 mm 4 m/s 750 mmHg 56%
    16:00 +14°C° 0 mm 4 m/s 750 mmHg 58%
    17:00 +14°C° 0 mm 4 m/s 750 mmHg 59%
    18:00 +13°C° 0 mm 4 m/s 751 mmHg 60%
    19:00 +13°C° 0 mm 4 m/s 751 mmHg 61%
    20:00 +12°C° 0 mm 4 m/s 751 mmHg 61%
    21:00 +11°C° 0 mm 4 m/s 751 mmHg 62%
    22:00 +11°C° 0 mm 4 m/s 751 mmHg 61%
    23:00 +11°C° 0 mm 4 m/s 752 mmHg 61%

    Amanhã, 20 Novembro, Terça-feira

    Tempo Temperatura Precipitação Vento Pressão Humidade
    00:00 +10°C° 0 mm 4 m/s 752 mmHg 61%
    01:00 +10°C° 0 mm 4 m/s 752 mmHg 60%
    02:00 +10°C° 0 mm 3 m/s 752 mmHg 60%
    03:00 +10°C° 0 mm 3 m/s 752 mmHg 59%
    04:00 +9°C° 0 mm 3 m/s 752 mmHg 59%
    05:00 +9°C° 0 mm 3 m/s 753 mmHg 59%
    06:00 +9°C° 0 mm 3 m/s 753 mmHg 58%
    07:00 +10°C° 0 mm 3 m/s 753 mmHg 54%
    08:00 +11°C° 0 mm 3 m/s 754 mmHg 50%
    09:00 +12°C° 0 mm 3 m/s 754 mmHg 46%
    10:00 +12°C° 0 mm 4 m/s 754 mmHg 44%
    11:00 +13°C° 0 mm 4 m/s 754 mmHg 42%
    12:00 +14°C° 0 mm 4 m/s 754 mmHg 40%
    13:00 +14°C° 0 mm 4 m/s 754 mmHg 41%
    14:00 +14°C° 0 mm 4 m/s 754 mmHg 42%
    15:00 +14°C° 0 mm 4 m/s 754 mmHg 43%
    16:00 +13°C° 0 mm 4 m/s 754 mmHg 46%
    17:00 +12°C° 0 mm 3 m/s 755 mmHg 50%
    18:00 +11°C° 0 mm 3 m/s 756 mmHg 53%
    19:00 +11°C° 0 mm 3 m/s 756 mmHg 55%
    20:00 +12°C° 0 mm 2 m/s 756 mmHg 57%
    21:00 +10°C° 0 mm 2 m/s 757 mmHg 59%
    22:00 +10°C° 0 mm 2 m/s 756 mmHg 60%
    23:00 +10°C° 0 mm 2 m/s 756 mmHg 62%

    Depois de amanhã, 21 Novembro, Quarta-feira

    Tempo Temperatura Precipitação Vento Pressão Humidade
    00:00 +10°C° 0 mm 2 m/s 756 mmHg 63%
    01:00 +9°C° 0 mm 2 m/s 756 mmHg 64%
    02:00 +9°C° 0 mm 2 m/s 756 mmHg 65%
    03:00 +9°C° 0 mm 2 m/s 756 mmHg 65%
    04:00 +9°C° 0 mm 2 m/s 757 mmHg 66%
    05:00 +9°C° 0 mm 2 m/s 757 mmHg 66%
    06:00 +9°C° 0 mm 2 m/s 757 mmHg 67%
    07:00 +10°C° 0 mm 2 m/s 757 mmHg 64%
    08:00 +12°C° 0 mm 2 m/s 757 mmHg 60%
    09:00 +13°C° 0 mm 2 m/s 757 mmHg 57%
    10:00 +14°C° 0 mm 2 m/s 757 mmHg 53%
    11:00 +15°C° 0 mm 2 m/s 756 mmHg 49%
    12:00 +16°C° 0 mm 2 m/s 756 mmHg 45%
    13:00 +17°C° 0 mm 2 m/s 755 mmHg 44%
    14:00 +17°C° 0 mm 2 m/s 755 mmHg 44%
    15:00 +17°C° 0 mm 2 m/s 754 mmHg 43%
    16:00 +16°C° 0 mm 2 m/s 754 mmHg 46%
    17:00 +15°C° 0 mm 1 m/s 755 mmHg 50%
    18:00 +14°C° 0 mm 1 m/s 755 mmHg 54%
    19:00 +14°C° 0 mm 1 m/s 755 mmHg 55%
    20:00 +13°C° 0 mm 1 m/s 755 mmHg 56%
    21:00 +13°C° 0 mm 1 m/s 755 mmHg 57%
    22:00 +13°C° 0 mm 1 m/s 754 mmHg 57%
    23:00 +13°C° 0 mm 1 m/s 754 mmHg 56%

    22 Novembro, Quinta-feira

    Tempo Temperatura Precipitação Vento Pressão Humidade
    00:00 +13°C° 0 mm 1 m/s 754 mmHg 56%
    01:00 +12°C° 0 mm 1 m/s 754 mmHg 56%
    02:00 +12°C° 0 mm 1 m/s 753 mmHg 57%
    03:00 +12°C° 0 mm 1 m/s 753 mmHg 57%
    04:00 +12°C° 0 mm 1 m/s 753 mmHg 58%
    05:00 +12°C° 0 mm 1 m/s 753 mmHg 58%
    06:00 +12°C° 0 mm 2 m/s 753 mmHg 59%
    07:00 +13°C° 0 mm 2 m/s 753 mmHg 58%
    08:00 +13°C° 0 mm 2 m/s 752 mmHg 57%
    09:00 +14°C° 0 mm 2 m/s 752 mmHg 56%
    10:00 +14°C° 0 mm 3 m/s 752 mmHg 54%
    11:00 +14°C° 0 mm 3 m/s 752 mmHg 53%
    12:00 +15°C° 0 mm 4 m/s 751 mmHg 51%
    13:00 +15°C° 0 mm 4 m/s 751 mmHg 51%
    14:00 +15°C° 0 mm 4 m/s 751 mmHg 52%
    15:00 +15°C° 0 mm 5 m/s 751 mmHg 52%
    16:00 +14°C° 0.1 mm 5 m/s 751 mmHg 56%
    17:00 +13°C° 0.1 mm 5 m/s 752 mmHg 60%
    18:00 +12°C° 0.1 mm 5 m/s 752 mmHg 64%
    19:00 +10°C° 0 mm 5 m/s 752 mmHg 64%
    20:00 +10°C° 0 mm 5 m/s 753 mmHg 64%
    21:00 +9°C° 0 mm 5 m/s 753 mmHg 64%
    22:00 +9°C° 0 mm 5 m/s 753 mmHg 63%
    23:00 +9°C° 0 mm 5 m/s 754 mmHg 61%

    23 Novembro, Sexta-feira

    Tempo Temperatura Precipitação Vento Pressão Humidade
    00:00 +8°C° 0 mm 5 m/s 754 mmHg 60%
    01:00 +8°C° 0 mm 4 m/s 754 mmHg 60%
    02:00 +8°C° 0 mm 4 m/s 754 mmHg 60%
    03:00 +7°C° 0 mm 4 m/s 754 mmHg 60%
    04:00 +7°C° 0 mm 4 m/s 754 mmHg 61%
    05:00 +8°C° 0 mm 3 m/s 754 mmHg 61%
    06:00 +8°C° 0 mm 3 m/s 754 mmHg 62%
    07:00 +9°C° 0 mm 3 m/s 754 mmHg 59%
    08:00 +9°C° 0 mm 3 m/s 754 mmHg 57%
    09:00 +10°C° 0 mm 4 m/s 755 mmHg 54%
    10:00 +11°C° 0 mm 4 m/s 754 mmHg 54%
    11:00 +12°C° 0 mm 4 m/s 754 mmHg 53%
    12:00 +12°C° 0 mm 5 m/s 753 mmHg 53%
    13:00 +12°C° 0 mm 5 m/s 753 mmHg 53%
    14:00 +12°C° 0 mm 4 m/s 753 mmHg 53%
    15:00 +12°C° 0 mm 4 m/s 753 mmHg 53%
    16:00 +11°C° 0 mm 4 m/s 753 mmHg 55%
    17:00 +10°C° 0 mm 3 m/s 753 mmHg 57%
    18:00 +10°C° 0 mm 3 m/s 754 mmHg 59%
    19:00 +9°C° 0 mm 3 m/s 754 mmHg 59%
    20:00 +9°C° 0 mm 2 m/s 754 mmHg 59%
    21:00 +9°C° 0 mm 2 m/s 755 mmHg 60%
    22:00 +9°C° 0 mm 2 m/s 754 mmHg 60%
    23:00 +9°C° 0 mm 2 m/s 754 mmHg 59%

    24 Novembro, Sábado

    Tempo Temperatura Precipitação Vento Pressão Humidade
    00:00 +8°C° 0 mm 2 m/s 754 mmHg 59%
    01:00 +8°C° 0 mm 2 m/s 754 mmHg 59%
    02:00 +8°C° 0 mm 2 m/s 754 mmHg 59%
    03:00 +8°C° 0 mm 2 m/s 754 mmHg 59%
    04:00 +9°C° 0 mm 1 m/s 754 mmHg 59%
    05:00 +9°C° 0 mm 1 m/s 754 mmHg 59%
    06:00 +9°C° 0 mm 1 m/s 754 mmHg 59%
    07:00 +9°C° 0 mm 1 m/s 754 mmHg 55%
    08:00 +10°C° 0 mm 1 m/s 754 mmHg 51%
    09:00 +11°C° 0 mm 1 m/s 754 mmHg 46%
    10:00 +12°C° 0 mm 1 m/s 753 mmHg 43%
    11:00 +14°C° 0 mm 1 m/s 753 mmHg 39%
    12:00 +15°C° 0 mm 1 m/s 752 mmHg 36%
    13:00 +14°C° 0 mm 2 m/s 752 mmHg 37%
    14:00 +14°C° 0 mm 2 m/s 752 mmHg 38%
    15:00 +14°C° 0 mm 2 m/s 752 mmHg 39%
    16:00 +12°C° 0 mm 3 m/s 752 mmHg 43%
    17:00 +11°C° 0 mm 3 m/s 753 mmHg 46%
    18:00 +10°C° 0 mm 3 m/s 753 mmHg 50%
    19:00 +10°C° 0 mm 3 m/s 753 mmHg 51%
    20:00 +9°C° 0 mm 3 m/s 754 mmHg 53%
    21:00 +9°C° 0 mm 3 m/s 754 mmHg 54%
    22:00 +8°C° 0 mm 3 m/s 754 mmHg 55%
    23:00 +8°C° 0 mm 3 m/s 754 mmHg 56%
    Mostrar mais